Location: ??????
(55.9550°N, 37.5369°E)
Time: 03:56:52
(UTC+00:00)

Daily predictions for brighter satellites

Satellite Brightness Start Highest point End
(mag) Time Altitude Azimuth Time Altitude Azimuth Time Altitude Azimuth
Genesis I 3.8 00:04:45 53° NNE 00:04:45 53° NNE 00:07:56 10° NE
Timation 1 Rocket 4.2 00:00:48 10° NW 00:06:50 79° WSW 00:12:50 10° SSE
Cosmos 2082 4.0 00:01:23 10° NW 00:05:52 47° WNW 00:05:52 47° WNW
AQUA 3.7 00:05:47 10° NNE 00:10:32 69° WNW 00:10:41 69° W
CZ-4C R/B 3.5 00:06:34 13° WNW 00:11:51 46° N 00:18:57 10° E
Cosmos 1821 Rocket 3.9 00:06:17 10° NNW 00:12:38 81° W 00:15:30 35° S
Cosmos 1470 Rocket 3.5 00:08:49 10° NNW 00:13:17 85° E 00:13:45 71° SSE
Cosmos 1777 Rocket 3.9 00:08:21 10° NNW 00:13:29 64° WSW 00:13:29 64° WSW
Cosmos 2369 Rocket 4.0 00:10:57 15° WNW 00:13:52 22° NNW 00:18:17 10° NNE
NOSS 2-1 (C) 3.9 00:15:18 45° NNW 00:15:18 45° NNW 00:19:10 10° NE
Cosmos 1992 Rocket 3.9 00:14:43 63° WSW 00:15:24 71° WNW 00:20:39 10° NNE
CZ-4B R/B 3.4 00:12:35 10° NNE 00:17:40 90° W 00:18:48 56° SSW
NOSS 2-2 (C) 4.4 00:18:35 51° SW 00:18:47 51° SW 00:25:44 10° SSE
NOSS 2-1 (D) 3.9 00:20:11 43° NNW 00:20:13 43° NNW 00:24:13 10° NE
Cosmos 1697 Rocket 3.0 00:19:51 40° S 00:21:44 61° ESE 00:27:17 10° NE
Cosmos 972 Rocket 4.3 00:21:58 37° SSE 00:23:36 56° ESE 00:28:29 10° NNE
Meteor 1-28 Rocket 4.2 00:25:29 35° NW 00:25:29 35° NW 00:27:49 10° NNW
Cosmos 1934 Rocket 4.0 00:18:04 10° N 00:24:10 79° ENE 00:30:15 10° SSE
ERS-2 4.4 00:22:49 10° ESE 00:25:55 26° ENE 00:29:02 10° N
SL-24 R/B 4.4 00:24:10 32° SSE 00:26:32 87° WSW 00:32:13 10° NNW
Cosmos 1980 Rocket 3.2 00:23:49 23° SSE 00:26:52 41° ESE 00:32:09 10° NE
Cosmos 2263 Rocket 2.2 00:22:43 10° NW 00:28:24 81° NE 00:34:06 10° SE
Meteor 1-25 Rocket 4.2 00:24:49 10° NNW 00:30:35 63° W 00:32:39 39° SSW
Meteor 1-26 Rocket 4.4 00:29:01 27° S 00:31:58 65° E 00:37:21 10° NNE
Cosmos 220 Rocket 3.9 00:31:47 66° W 00:32:03 68° WNW 00:36:20 10° NNE
ATLAS CENTAUR R/B 3.8 00:16:15 10° W 00:32:24 83° N 00:38:03 10° E
Cosmos 1844 Rocket 4.3 00:28:52 10° NNW 00:34:01 35° NE 00:39:10 10° ESE
Cosmos 405 3.9 00:37:32 37° NNW 00:37:32 37° NNW 00:40:08 10° N
Cosmos 1515 Rocket 3.9 00:35:46 32° SSE 00:37:41 64° E 00:42:05 10° NNE
Cosmos 1933 3.2 00:37:52 68° WSW 00:38:08 71° WNW 00:42:14 10° N
Cosmos 1356 3.3 00:35:03 10° NNW 00:38:28 83° NE 00:38:28 83° NE
Cosmos 1602 3.7 00:38:10 10° NNW 00:41:40 61° WNW 00:41:40 61° WNW
ADEOS II 2.1 00:37:33 10° NNE 00:42:47 65° WNW 00:44:28 42° SW
SL-16 R/B 4.5 00:39:05 10° SSE 00:43:06 20° E 00:47:07 10° NE
Cosmos 1633 Rocket 4.2 00:40:09 10° NNW 00:42:58 29° WNW 00:42:58 29° WNW
Cosmos 1937 Rocket 4.4 00:39:17 10° NNW 00:44:20 50° NE 00:49:20 10° SE
Nadezhda 3 Rocket 3.9 00:42:12 31° SSW 00:45:20 78° WNW 00:51:33 10° N
Cosmos 2227 4.1 00:40:37 10° NW 00:46:19 78° WSW 00:51:56 10° SSE
Cosmos 1328 Rocket 3.5 00:46:57 49° SW 00:48:01 70° WNW 00:52:29 10° N
ARIANE 5 R/B 2.5 00:43:08 10° NNE 00:48:18 82° ESE 00:51:03 28° SSW
Cosmos 1500 3.4 00:46:01 10° N 00:49:53 70° ENE 00:53:42 10° SSE
Cosmos 1933 Rocket 3.5 00:46:07 10° NNW 00:50:28 63° W 00:51:47 41° SSW
Cosmos 1151 Rocket 3.0 00:49:41 50° WSW 00:50:29 61° WNW 00:54:50 10° N
Cosmos 1605 Rocket 4.1 00:44:15 10° N 00:50:40 82° ENE 00:57:06 10° SSE
USA 305 3.7 00:51:12 34° S 00:52:01 37° SSE 00:55:58 10° E
Cosmos 1535 Rocket 4.5 00:45:40 10° NNW 00:52:03 75° W 00:58:25 10° S
IDEFIX/ARIANE 42P 2.8 00:46:57 10° NNE 00:52:16 73° ESE 00:56:03 19° S
Cosmos 1656 3.8 00:51:02 37° WSW 00:53:01 59° NW 00:58:32 10° NNE
IRS-1D 3.9 00:47:54 10° N 00:53:06 52° WNW 00:54:55 36° WSW
Meteor 1-14 Rocket 4.1 00:48:51 10° NNW 00:54:29 67° W 00:59:59 10° S
Cosmos 1812 4.3 00:51:23 10° SSE 00:54:53 34° E 00:58:25 10° NNE
Cosmos 1666 4.0 00:51:45 10° N 00:55:26 41° ENE 00:59:04 10° SE
USA 306 3.7 00:55:13 33° S 00:56:12 39° SSE 01:00:10 10° E
Cosmos 2227 Rocket 4.3 00:54:03 10° WNW 00:54:07 10° WNW 00:54:07 10° WNW
ASTEX 1 3.3 00:53:25 10° N 00:58:27 85° W 01:01:52 21° S
CZ-2C R/B 4.1 00:54:16 10° NNE 00:58:55 34° E 01:03:36 10° SSE
PKM 4.2 00:57:45 35° W 00:59:12 53° SSW 01:02:35 10° SE
Meteor 1-5 Rocket 4.1 00:54:40 10° NNW 01:00:00 84° ENE 01:05:24 10° SSE
NOSS 3-4 (A) 3.8 00:53:43 10° NW 01:00:27 84° NE 01:07:58 10° SE
NOSS 3-4 (C) 3.8 00:53:49 10° NW 01:00:33 84° NE 01:08:05 10° SE
CZ-4C R/B 2.9 00:58:58 13° SSE 01:02:08 89° WSW 01:05:43 10° NNW
CBERS-1 4.4 00:57:29 10° N 01:02:21 46° WNW 01:04:09 33° WSW
Cosmos 2228 Rocket 3.4 01:02:04 14° S 01:05:44 64° E 01:10:08 10° NNE
IRS-1C 4.2 01:03:24 10° NNE 01:08:41 62° WNW 01:11:32 27° SW
USA 267 3.5 01:02:24 10° ENE 01:08:54 60° SSE 01:13:06 23° SW
CZ-2D R/B 3.4 01:04:58 10° NNE 01:09:11 86° WNW 01:11:39 25° SSW
Cosmos 1869 Rocket 3.5 01:05:29 10° NNW 01:09:52 89° W 01:14:13 10° S
SL-16 R/B 4.3 01:15:09 12° WNW 01:15:09 12° WNW 01:17:00 10° NW
CZ-2D R/B 3.5 01:12:51 10° N 01:16:57 23° NW 01:18:48 19° W
Cosmos 1238 Rocket 4.1 01:11:17 10° NNW 01:17:45 55° W 01:23:48 10° SSW
SJ 16-02 1.4 01:16:13 10° NNW 01:20:31 53° WSW 01:24:47 10° S
CZ-2C R/B 2.7 01:18:04 10° NNE 01:21:51 83° ESE 01:24:49 16° SSW
PSLV R/B 4.5 01:19:26 10° NNE 01:23:32 48° E 01:27:35 10° S
USA 307 3.4 01:21:48 27° SW 01:23:43 48° SSE 01:27:49 10° E
Resurs 1-4 Rocket 3.6 01:20:09 10° N 01:23:57 21° NW 01:25:56 17° WNW
Cosmos 44 3.6 01:21:10 20° SSW 01:24:09 57° SE 01:28:49 10° NE
ATLAS 2AS CENTAUR R/B 2.9 01:16:42 10° NW 01:24:28 90° SW 01:31:37 10° SE
Cosmos 2278 3.7 01:20:29 21° SW 01:24:28 87° NW 01:30:14 10° NE
Cosmos 1782 3.1 01:23:31 29° SW 01:25:15 50° WNW 01:29:13 10° N
Cosmos 990 Rocket 3.9 01:20:28 10° NNW 01:25:37 67° WSW 01:30:47 10° SSE
USA 308 3.4 01:24:51 26° SW 01:26:53 49° SSE 01:31:00 10° E
Cosmos 2100 Rocket 4.4 01:20:35 10° N 01:26:58 68° ENE 01:33:20 10° SSE
Cosmos 1943 Rocket 4.5 01:24:04 10° NW 01:27:44 17° N 01:31:22 10° NE
Meteor 1-4 Rocket 3.3 01:26:07 10° S 01:29:29 50° E 01:32:57 10° NNE
Cosmos 389 Rocket 2.6 01:28:34 29° SW 01:30:06 54° WNW 01:33:38 10° N
Cosmos 1606 4.4 01:29:56 17° WNW 01:30:12 17° WNW 01:32:49 10° NNW
Cosmos 1727 Rocket 4.4 01:25:43 10° S 01:31:59 68° E 01:38:17 10° NNE
Lacrosse 5 2.0 01:29:27 23° SW 01:32:34 71° SSE 01:37:38 10° ENE
USA 276 3.3 01:32:02 25° SSW 01:32:47 28° S 01:35:36 10° ESE
Cosmos 2369 3.9 01:29:32 22° WSW 01:33:15 61° NW 01:38:58 10° NNE
ATLAS 5 CENTAUR R/B 2.8 01:30:41 16° WNW 01:33:57 39° N 01:38:57 10° ENE
H-2A R/B 2.3 01:29:48 10° S 01:34:05 50° W 01:38:29 10° NNW
Meteor 1-11 Rocket 3.7 01:31:33 10° NNW 01:37:25 79° WSW 01:43:06 10° S
ADEOS Rocket 3.0 01:31:34 10° SSE 01:38:14 85° WSW 01:44:14 10° NNW
Cosmos 1339 Rocket 4.4 01:32:06 10° SSW 01:38:23 76° WNW 01:44:36 10° N
ERBS 4.2 01:38:07 11° S 01:40:33 23° SE 01:43:15 10° E
ALOS 4.1 01:38:56 10° NNE 01:43:11 33° E 01:47:24 10° SSE
Cosmos 1459 Rocket 4.1 01:37:05 10° N 01:43:15 78° ENE 01:49:18 10° SSE
Cosmos 972 4.4 01:41:42 15° SW 01:45:49 66° WNW 01:50:43 10° NNE
Landsat 5 4.1 01:43:05 10° SSW 01:47:20 39° W 01:51:33 10° NNW
USA 234 4.0 01:42:19 10° SSE 01:47:51 29° SW 01:53:26 10° WNW
Cosmos 1818 4.5 01:44:09 15° W 01:48:17 39° NNW 01:53:26 10° NE
MSX 3.9 01:42:33 10° NNE 01:48:18 68° WNW 01:54:02 10° SSW
Spot 4 Rocket 4.3 01:43:34 10° N 01:48:34 52° WNW 01:53:11 12° SW
CZ-4B R/B 1.2 01:49:28 10° SSE 01:52:39 82° WSW 01:55:58 10° NNW
Meteor 1-27 Rocket 4.2 01:49:18 10° S 01:55:13 71° E 02:01:06 10° NNE
Cosmos 1484 Rocket 4.2 01:55:20 10° NNE 01:59:09 42° E 02:02:57 10° S
ERS-2 2.5 01:55:53 10° S 01:59:21 40° W 02:02:50 10° NNW
Cosmos 2298 Rocket 4.5 01:54:18 10° NNW 01:59:37 67° ENE 02:04:55 10° SE
Cosmos 2369 Rocket 4.4 01:56:11 10° NW 02:00:02 18° N 02:03:53 10° NE
Cosmos 1898 Rocket 3.8 01:55:19 10° NW 02:00:15 42° WSW 02:05:11 10° S
COSMO-SKYMED 1 3.5 01:56:07 10° SE 02:00:20 53° ENE 02:04:35 10° N
Cosmos 2360 Rocket 4.0 01:55:54 10° S 02:00:53 33° ESE 02:05:53 10° NE
CZ-4C R/B 3.1 01:54:40 10° NW 02:01:18 74° NNE 02:09:15 10° ESE
Cosmos 1536 2.9 02:00:22 10° NNW 02:04:24 58° W 02:08:24 10° S
Cosmos 1697 Rocket 3.4 02:01:35 14° WSW 02:06:01 39° NW 02:11:18 10° NNE
Cosmos 1689 Rocket 2.6 02:04:50 10° SSE 02:07:47 64° ENE 02:10:45 10° N
Cosmos 372 Rocket 3.9 02:03:20 10° NNW 02:08:33 83° WSW 02:13:41 10° SSE
Meteor 1-31 Rocket 4.1 02:06:57 10° NNE 02:10:38 43° E 02:14:19 10° S
Cosmos 1980 Rocket 2.5 02:05:36 12° WSW 02:10:48 53° NW 02:16:23 10° NNE
deb Chang Zheng 4 4.0 02:06:54 10° NNE 02:11:12 64° ESE 02:15:27 10° S
Cosmos 2263 Rocket 3.1 02:07:17 10° NW 02:11:48 25° WSW 02:16:18 10° SSW
Cosmos 2278 Rocket 3.7 02:06:42 10° NNW 02:12:01 39° NE 02:17:19 10° ESE
Cosmos 1844 3.7 02:08:10 10° NW 02:13:49 88° WSW 02:19:23 10° SSE
Cosmos 1908 Rocket 4.3 02:09:31 10° N 02:13:57 60° ENE 02:18:23 10° SSE
Cosmos 2173 Rocket 4.0 02:09:32 10° NNW 02:15:49 69° W 02:22:07 10° S
USA 32 4.3 02:12:12 10° NNW 02:17:15 48° W 02:22:17 10° SSW
Cosmos 2322 Rocket 2.7 02:11:45 10° SSW 02:17:22 66° ESE 02:23:03 10° NE
Cosmos 1844 Rocket 2.7 02:12:46 10° NW 02:18:24 73° WSW 02:24:02 10° SSE
PSLV R/B 4.1 02:15:04 10° SSE 02:19:08 80° ENE 02:23:16 10° NNW
Cosmos 1437 Rocket 4.3 02:16:47 10° SSE 02:20:20 39° E 02:23:58 10° NNE
Cosmos 1544 3.5 02:16:49 10° N 02:20:26 67° ENE 02:23:59 10° SSE
Cosmos 921 Rocket 3.3 02:16:26 10° SW 02:20:28 47° WNW 02:24:34 10° NNE
COSMOS 2455 3.7 02:14:45 10° NW 02:20:41 52° NE 02:26:35 10° ESE
ADEOS II 3.8 02:18:18 10° N 02:21:37 17° NW 02:24:56 10° W
RESURS DK-1 4.3 02:19:40 10° NNW 02:23:26 31° NE 02:27:10 10° ESE
Cosmos 1937 Rocket 4.0 02:21:29 10° NW 02:26:11 36° WSW 02:30:49 10° S
SL-16 R/B 2.3 02:20:46 10° SSW 02:26:27 85° ESE 02:32:10 10° NE
ARIANE 5 R/B 3.8 02:22:54 10° N 02:26:54 24° NW 02:30:52 10° WSW
ADEOS 3.7 02:22:02 10° NNE 02:27:19 86° ESE 02:32:33 10° SSW
Cosmos 1707 Rocket 3.6 02:24:43 10° SSW 02:28:59 57° WNW 02:33:19 10° N
Cosmos 2150 Rocket 4.1 02:23:29 10° NNW 02:29:00 86° WSW 02:34:27 10° SSE
CZ-3B R/B 3.3 02:25:27 10° W 02:29:18 84° S 02:45:37 10° E
Cosmos 1812 3.6 02:27:18 10° SW 02:30:43 29° WNW 02:34:10 10° N
Cosmos 1666 3.8 02:27:42 10° NW 02:30:50 24° W 02:33:56 10° SW
IDEFIX/ARIANE 42P 3.7 02:27:06 10° N 02:31:27 27° NW 02:35:49 10° WSW
USA 305 3.1 02:27:30 10° WSW 02:31:44 67° S 02:35:57 10° E
Cosmos 1125 Rocket 3.8 02:27:34 10° NNW 02:32:55 76° ENE 02:38:12 10° SSE
Cosmos 2061 Rocket 4.1 02:28:13 10° NNW 02:34:39 73° W 02:41:03 10° S
USA 306 3.1 02:31:41 10° WSW 02:35:55 67° S 02:40:09 10° E
CZ-2C R/B 2.8 02:32:25 10° N 02:37:19 50° WNW 02:42:18 10° SW
Cosmos 1733 Rocket 3.6 02:36:41 10° NNW 02:40:42 37° W 02:44:42 10° SSW
Cosmos 841 Rocket 3.8 02:36:02 10° SSW 02:41:15 75° ESE 02:46:32 10° NNE
